Location: Molveno
(46.1500°N, 10.9667°E)
Time: 16:07:54
(UTC+00:00)

GEOS 3 Rocket - Pass Details

Date: 05 July 2020
Orbit: 771 x 848 km, 115.0° (Epoch: 10 August)

Event Time Altitude Azimuth Distance (km) Brightness Sun altitude
Rises 20:55:44 0° 36° (NE) 3,409 7.1 -13.7°
Reaches altitude 10° 20:58:04 10° 34° (NE) 2,476 6.4 -13.9°
Maximum altitude 21:03:25 68° 313° (NW) 914 4.1 -14.5°
Drops below altitude 10° 21:08:46 10° 232° (SW) 2,465 6.1 -14.9°
Sets 21:11:05 0° 230° (SW) 3,393 6.7 -15.2°
